BKB1 KHIO-OR77

Flight info

Callsign BKB1
Flight time 0h 21m
Altitude 7000
Route CANBY2 CANBY V23 EMADE
Aircraft PC12/L-SDFGRWY/S

Departure

Time 2026-04-29 11:53
Airport Portland Hillsboro Airport (KHIO)

Arrival

Time 2026-04-29 12:15
Airport Beggs Airstrip (OR77)
Time Latitude Longitude Altitude Speed Heading
2026-04-29 11:43 45.54111 -122.95410 204 ft 0 kts 53°
2026-04-29 11:49 45.54111 -122.95409 204 ft 1 kts 53°
2026-04-29 11:49 45.54133 -122.95359 210 ft 10 kts 59°
2026-04-29 11:50 45.54134 -122.95278 207 ft 10 kts 142°
2026-04-29 11:50 45.54079 -122.95220 209 ft 11 kts 143°
2026-04-29 11:50 45.54012 -122.95146 204 ft 14 kts 142°
2026-04-29 11:50 45.53931 -122.95050 209 ft 16 kts 146°
2026-04-29 11:51 45.53836 -122.94958 205 ft 18 kts 143°
2026-04-29 11:51 45.53787 -122.94909 199 ft 0 kts 119°
2026-04-29 11:51 45.53793 -122.94863 203 ft 10 kts 53°
2026-04-29 11:51 45.53855 -122.94808 203 ft 12 kts
2026-04-29 11:52 45.53895 -122.94836 202 ft 4 kts 329°
2026-04-29 11:52 45.53910 -122.94849 203 ft 0 kts 325°
2026-04-29 11:52 45.53963 -122.94903 205 ft 32 kts 323°
2026-04-29 11:52 45.54296 -122.95244 208 ft 83 kts 323°
2026-04-29 11:53 45.54835 -122.95806 262 ft 103 kts 325°
2026-04-29 11:53 45.55439 -122.96415 464 ft 111 kts 328°
2026-04-29 11:53 45.56088 -122.97032 747 ft 114 kts 328°
2026-04-29 11:53 45.56806 -122.97674 981 ft 129 kts 339°
2026-04-29 11:54 45.57704 -122.97676 1391 ft 137 kts 24°
2026-04-29 11:54 45.58476 -122.96684 1458 ft 169 kts 63°
2026-04-29 11:54 45.58504 -122.95037 1877 ft 173 kts 112°
2026-04-29 11:54 45.57705 -122.93822 2410 ft 166 kts 143°
2026-04-29 11:55 45.56940 -122.92634 2924 ft 161 kts 123°
2026-04-29 11:55 45.56354 -122.91292 3448 ft 157 kts 121°
2026-04-29 11:55 45.55788 -122.89973 3962 ft 155 kts 121°
2026-04-29 11:55 45.55229 -122.88667 4483 ft 153 kts 121°
2026-04-29 11:56 45.54680 -122.87386 5020 ft 150 kts 121°
2026-04-29 11:56 45.54142 -122.86123 5519 ft 148 kts 120°
2026-04-29 11:56 45.53608 -122.84884 5995 ft 148 kts 121°
2026-04-29 11:56 45.53049 -122.83602 6388 ft 155 kts 121°
2026-04-29 11:57 45.52462 -122.82273 6777 ft 162 kts 121°
2026-04-29 11:57 45.51831 -122.80853 6959 ft 181 kts 121°
2026-04-29 11:57 45.51114 -122.79241 6988 ft 202 kts 121°
2026-04-29 11:57 45.50333 -122.77486 7000 ft 217 kts 121°
2026-04-29 11:58 45.49509 -122.75635 6997 ft 223 kts 121°
2026-04-29 11:58 45.48689 -122.73792 6999 ft 223 kts 121°
2026-04-29 11:58 45.47853 -122.71932 7000 ft 221 kts 122°
2026-04-29 11:58 45.46698 -122.70545 6997 ft 222 kts 159°
2026-04-29 11:59 45.45176 -122.70532 7001 ft 222 kts 194°
2026-04-29 11:59 45.43716 -122.71250 7001 ft 222 kts 199°
2026-04-29 11:59 45.42245 -122.71913 6998 ft 222 kts 197°
2026-04-29 11:59 45.40759 -122.72533 6998 ft 222 kts 196°
2026-04-29 12:00 45.39268 -122.73143 6997 ft 223 kts 196°
2026-04-29 12:00 45.37769 -122.73752 7000 ft 223 kts 196°
2026-04-29 12:00 45.36290 -122.74352 7002 ft 224 kts 196°
2026-04-29 12:00 45.34789 -122.74962 7003 ft 225 kts 196°
2026-04-29 12:01 45.33285 -122.75574 7004 ft 225 kts 196°
2026-04-29 12:01 45.31780 -122.76185 7012 ft 225 kts 196°
2026-04-29 12:01 45.30278 -122.76794 7012 ft 225 kts 196°
2026-04-29 12:01 45.28768 -122.77391 7013 ft 225 kts 195°
2026-04-29 12:02 45.27259 -122.77980 7012 ft 225 kts 195°
2026-04-29 12:02 45.25743 -122.78571 7012 ft 225 kts 195°
2026-04-29 12:02 45.24236 -122.79160 7012 ft 225 kts 195°
2026-04-29 12:02 45.22726 -122.79749 7012 ft 224 kts 195°
2026-04-29 12:03 45.21221 -122.80335 7012 ft 224 kts 195°
2026-04-29 12:03 45.19719 -122.80921 7012 ft 224 kts 195°
2026-04-29 12:03 45.18217 -122.81508 6988 ft 224 kts 195°
2026-04-29 12:03 45.16734 -122.82087 6989 ft 224 kts 195°
2026-04-29 12:04 45.15229 -122.82675 6989 ft 224 kts 195°
2026-04-29 12:04 45.13724 -122.83262 6988 ft 224 kts 195°
2026-04-29 12:04 45.12224 -122.83848 6989 ft 224 kts 195°
2026-04-29 12:04 45.10720 -122.84435 6988 ft 224 kts 195°
2026-04-29 12:05 45.09208 -122.85025 6986 ft 225 kts 195°
2026-04-29 12:05 45.07701 -122.85613 6986 ft 225 kts 195°
2026-04-29 12:05 45.06190 -122.86201 6987 ft 225 kts 195°
2026-04-29 12:05 45.04696 -122.86782 6986 ft 225 kts 195°
2026-04-29 12:06 45.03183 -122.87371 6987 ft 225 kts 195°
2026-04-29 12:06 45.01647 -122.87970 6815 ft 232 kts 195°
2026-04-29 12:06 45.00072 -122.88586 6616 ft 237 kts 195°
2026-04-29 12:06 44.98472 -122.89209 6366 ft 240 kts 195°
2026-04-29 12:07 44.96852 -122.89840 6108 ft 242 kts 196°
2026-04-29 12:07 44.95223 -122.90475 5847 ft 243 kts 196°
2026-04-29 12:07 44.94155 -122.90866 5680 ft 237 kts 191°
2026-04-29 12:07 44.92551 -122.90706 5422 ft 229 kts 159°
2026-04-29 12:08 44.91280 -122.89475 5178 ft 218 kts 134°
2026-04-29 12:08 44.90251 -122.87996 4913 ft 202 kts 133°
2026-04-29 12:08 44.89303 -122.86636 4648 ft 187 kts 133°
2026-04-29 12:08 44.88645 -122.85193 4390 ft 169 kts 100°
2026-04-29 12:09 44.88437 -122.83610 4127 ft 160 kts 98°
2026-04-29 12:09 44.88271 -122.82081 3867 ft 155 kts 96°
2026-04-29 12:09 44.88138 -122.80623 3597 ft 142 kts 95°
2026-04-29 12:09 44.88086 -122.79318 3332 ft 127 kts 86°
2026-04-29 12:10 44.88104 -122.78114 3071 ft 120 kts 96°
2026-04-29 12:10 44.87538 -122.77376 2816 ft 119 kts 175°
2026-04-29 12:10 44.86957 -122.77957 2558 ft 106 kts 259°
2026-04-29 12:10 44.86975 -122.78948 2296 ft 99 kts 278°
2026-04-29 12:11 44.87063 -122.79908 1974 ft 100 kts 275°
2026-04-29 12:11 44.87128 -122.80884 1523 ft 102 kts 272°
2026-04-29 12:11 44.87144 -122.81905 1022 ft 106 kts 265°
2026-04-29 12:11 44.87129 -122.82927 623 ft 99 kts 267°
2026-04-29 12:12 44.87126 -122.83808 664 ft 82 kts 264°
2026-04-29 12:12 44.87088 -122.84634 758 ft 84 kts 264°
2026-04-29 12:12 44.87229 -122.85480 891 ft 91 kts 297°
2026-04-29 12:12 44.87639 -122.86135 1075 ft 92 kts 319°
2026-04-29 12:13 44.88134 -122.86759 1150 ft 96 kts 317°
2026-04-29 12:13 44.88221 -122.87614 1125 ft 100 kts 225°
2026-04-29 12:13 44.87591 -122.87705 1116 ft 99 kts 145°
2026-04-29 12:13 44.87231 -122.86912 964 ft 96 kts 104°
2026-04-29 12:14 44.87127 -122.86005 784 ft 93 kts 91°
2026-04-29 12:14 44.87111 -122.85108 676 ft 89 kts 88°
2026-04-29 12:14 44.87121 -122.84255 615 ft 85 kts 88°
2026-04-29 12:14 44.87131 -122.83445 559 ft 78 kts 87°
2026-04-29 12:15 44.87136 -122.83073 593 ft 6 kts 82°
2026-04-29 12:15 44.87141 -122.83061 598 ft 3 kts 36°
2026-04-29 12:15 44.87152 -122.83051 600 ft 0 kts 332°
2026-04-29 12:15 44.87148 -122.83047 599 ft 0 kts 289°
2026-04-29 12:25 44.87148 -122.83051 599 ft 0 kts 264°
2026-04-29 12:25 44.87095 -122.83666 583 ft 74 kts 253°
2026-04-29 12:26 44.86945 -122.84420 695 ft 88 kts 251°
2026-04-29 12:26 44.86727 -122.85328 858 ft 105 kts 250°
2026-04-29 12:26 44.86496 -122.86363 1115 ft 119 kts 251°
2026-04-29 12:26 44.86220 -122.87632 1166 ft 151 kts 253°
2026-04-29 12:27 44.85931 -122.89166 1180 ft 168 kts 256°
2026-04-29 12:27 44.85680 -122.90790 1185 ft 172 kts 259°
2026-04-29 12:27 44.85475 -122.92477 1191 ft 177 kts 261°
2026-04-29 12:27 44.85300 -122.94184 1194 ft 180 kts 262°
2026-04-29 12:28 44.85105 -122.95935 1207 ft 182 kts 262°
2026-04-29 12:28 44.84894 -122.97712 1201 ft 185 kts 262°
2026-04-29 12:28 44.84679 -122.99506 1196 ft 186 kts 262°
2026-04-29 12:28 44.84464 -123.01276 1197 ft 180 kts 262°
2026-04-29 12:29 44.84256 -123.02939 1194 ft 160 kts 262°
2026-04-29 12:29 44.84068 -123.04393 1192 ft 143 kts 262°
2026-04-29 12:29 44.83895 -123.05710 1182 ft 131 kts 262°
2026-04-29 12:29 44.83732 -123.06917 1185 ft 118 kts 262°
2026-04-29 12:30 44.83565 -123.07931 1187 ft 97 kts 243°
2026-04-29 12:30 44.83058 -123.08372 1172 ft 81 kts 207°
2026-04-29 12:30 44.82568 -123.08876 1185 ft 89 kts 222°
2026-04-29 12:30 44.82118 -123.09436 1174 ft 87 kts 228°
2026-04-29 12:31 44.81760 -123.10243 1197 ft 107 kts 245°
2026-04-29 12:31 44.81410 -123.11221 1198 ft 120 kts 247°
2026-04-29 12:31 44.81037 -123.12330 1193 ft 129 kts 248°
2026-04-29 12:31 44.80651 -123.13512 1193 ft 136 kts 249°
2026-04-29 12:32 44.80254 -123.14744 1191 ft 140 kts 249°
2026-04-29 12:32 44.79855 -123.16002 1189 ft 139 kts 249°
2026-04-29 12:32 44.79468 -123.17213 1180 ft 132 kts 241°
2026-04-29 12:32 44.78817 -123.17991 1196 ft 120 kts 193°
2026-04-29 12:33 44.78092 -123.17683 1069 ft 110 kts 125°
2026-04-29 12:33 44.78050 -123.16723 920 ft 100 kts 48°
2026-04-29 12:33 44.78697 -123.16275 606 ft 110 kts 19°
2026-04-29 12:33 44.79393 -123.15902 313 ft 104 kts 14°
2026-04-29 12:34 44.80044 -123.15654 183 ft 86 kts 13°
2026-04-29 12:34 44.80426 -123.15502 180 ft 15 kts 14°
2026-04-29 12:34 44.80489 -123.15506 179 ft 5 kts 288°
2026-04-29 12:34 44.80490 -123.15522 179 ft 0 kts 285°
2026-04-29 12:40 44.80484 -123.15531 179 ft 5 kts 165°
2026-04-29 12:40 44.80455 -123.15497 180 ft 5 kts 165°
2026-04-29 12:41 44.80446 -123.15499 180 ft 0 kts 194°
2026-04-29 12:41 44.80294 -123.15542 178 ft 49 kts 201°
2026-04-29 12:41 44.79820 -123.15738 198 ft 85 kts 197°
2026-04-29 12:41 44.79252 -123.15987 384 ft 86 kts 200°
2026-04-29 12:42 44.78709 -123.16462 542 ft 102 kts 231°
2026-04-29 12:42 44.78456 -123.17491 714 ft 121 kts 261°
2026-04-29 12:42 44.78310 -123.18615 1226 ft 110 kts 255°
2026-04-29 12:42 44.77958 -123.19745 1307 ft 141 kts 247°
2026-04-29 12:43 44.77529 -123.21070 1418 ft 170 kts 247°
2026-04-29 12:43 44.77016 -123.22690 1532 ft 188 kts 253°
2026-04-29 12:43 44.76934 -123.24548 1706 ft 195 kts 273°
2026-04-29 12:43 44.76955 -123.26470 1960 ft 198 kts 272°
2026-04-29 12:44 44.76887 -123.28405 2255 ft 197 kts 269°
2026-04-29 12:44 44.76818 -123.30341 2516 ft 199 kts 270°
2026-04-29 12:44 44.76772 -123.32294 2772 ft 200 kts 270°
2026-04-29 12:44 44.76740 -123.34261 3030 ft 201 kts 270°
2026-04-29 12:45 44.76716 -123.36230 3298 ft 201 kts 270°
2026-04-29 12:45 44.76698 -123.38199 3568 ft 201 kts 270°
2026-04-29 12:45 44.76681 -123.40187 3747 ft 205 kts 270°
2026-04-29 12:45 44.76662 -123.42231 3827 ft 212 kts 270°
2026-04-29 12:46 44.76640 -123.44344 3865 ft 218 kts 270°
2026-04-29 12:46 44.76621 -123.46498 3881 ft 222 kts 270°
2026-04-29 12:46 44.76600 -123.48664 3887 ft 225 kts 270°
2026-04-29 12:46 44.76578 -123.50872 3890 ft 227 kts 270°
2026-04-29 12:47 44.76555 -123.53101 3893 ft 228 kts 270°
2026-04-29 12:47 44.76533 -123.55334 3892 ft 228 kts 270°
2026-04-29 12:47 44.76515 -123.57517 3897 ft 214 kts 270°
2026-04-29 12:47 44.76501 -123.59538 3899 ft 200 kts 270°
2026-04-29 12:48 44.76494 -123.61449 3898 ft 190 kts 270°
2026-04-29 12:48 44.76487 -123.63280 3904 ft 184 kts 270°
2026-04-29 12:48 44.76482 -123.65058 3900 ft 179 kts 270°
2026-04-29 12:48 44.76478 -123.66783 3895 ft 174 kts 270°
2026-04-29 12:49 44.76473 -123.68469 3895 ft 171 kts 270°
2026-04-29 12:49 44.76468 -123.70121 3898 ft 167 kts 270°
2026-04-29 12:49 44.76463 -123.71733 3900 ft 164 kts 270°
2026-04-29 12:49 44.76456 -123.73295 3894 ft 159 kts 270°
2026-04-29 12:50 44.76453 -123.74840 3898 ft 156 kts 270°
2026-04-29 12:50 44.76455 -123.76359 3905 ft 154 kts 270°
2026-04-29 12:50 44.76459 -123.77856 3905 ft 152 kts 270°
2026-04-29 12:50 44.76461 -123.79337 3908 ft 151 kts 270°
2026-04-29 12:51 44.76464 -123.80818 3906 ft 151 kts 270°
2026-04-29 12:51 44.76466 -123.82287 3907 ft 150 kts 270°
2026-04-29 12:51 44.76468 -123.83759 3909 ft 152 kts 270°
2026-04-29 12:51 44.76469 -123.85268 3910 ft 156 kts 270°
2026-04-29 12:52 44.76470 -123.86814 3909 ft 160 kts 270°
2026-04-29 12:52 44.76473 -123.88401 3880 ft 165 kts 270°
2026-04-29 12:52 44.76480 -123.90043 3816 ft 171 kts 270°
2026-04-29 12:52 44.76490 -123.91753 3688 ft 178 kts 270°
2026-04-29 12:53 44.76503 -123.93513 3560 ft 181 kts 270°
2026-04-29 12:53 44.76511 -123.94675 3437 ft 179 kts 270°
2026-04-29 12:53 44.76519 -123.96418 3230 ft 178 kts 270°
2026-04-29 12:53 44.76522 -123.98150 3024 ft 176 kts 270°
2026-04-29 12:54 44.76514 -124.00425 2754 ft 175 kts 270°
2026-04-29 12:54 44.76506 -124.02126 2543 ft 171 kts 274°
2026-04-29 12:54 44.76958 -124.03566 2290 ft 159 kts 316°
2026-04-29 12:54 44.77537 -124.04203 2112 ft 154 kts 328°
2026-04-29 12:55 44.78491 -124.04784 1882 ft 148 kts 347°
2026-04-29 12:55 44.79495 -124.04932 1714 ft 143 kts
2026-04-29 12:55 44.80458 -124.04803 1575 ft 136 kts
2026-04-29 12:55 44.81371 -124.04568 1444 ft 131 kts 10°
2026-04-29 12:56 44.82257 -124.04321 1315 ft 128 kts 11°
2026-04-29 12:56 44.83126 -124.04079 1190 ft 126 kts 11°
2026-04-29 12:56 44.83951 -124.03856 1053 ft 115 kts 10°
2026-04-29 12:56 44.84693 -124.03670 911 ft 107 kts
2026-04-29 12:57 44.85392 -124.03469 770 ft 98 kts 10°
2026-04-29 12:57 44.86037 -124.03290 603 ft 89 kts
2026-04-29 12:57 44.86627 -124.03141 397 ft 82 kts
2026-04-29 12:57 44.87190 -124.02995 132 ft 82 kts 10°
2026-04-29 12:58 44.87695 -124.02857 72 ft 62 kts 12°
2026-04-29 12:58 44.88015 -124.02768 62 ft 27 kts 11°
2026-04-29 12:58 44.88109 -124.02750 67 ft 12 kts 335°
2026-04-29 12:58 44.88102 -124.02836 62 ft 12 kts 195°
2026-04-29 12:59 44.88019 -124.02858 65 ft 13 kts 191°
2026-04-29 12:59 44.87934 -124.02879 67 ft 12 kts 189°
2026-04-29 12:59 44.87870 -124.02902 68 ft 7 kts 229°
2026-04-29 12:59 44.87896 -124.02939 65 ft 7 kts 345°
2026-04-29 13:00 44.87920 -124.02937 68 ft 0 kts 14°